Flag Weather past 2 weeks in Geesthacht, Schleswig-Holstein, Germany

Now
43 °F

Partly sunny.


Feels Like: 36 °F
Forecast: 42 / 49 °F
Wind: 12 mph from Southeast

Location: Hamburg-Fuhlsbuettel

Current Time: Nov 23, 2014 at 12:20:17 PM

Latest Report: Nov 23, 2014 at 11:50 AM


Visibility: 4 mi

Pressure: 30.12 "Hg

Humidity: 93%

Dew point: 41 °F

Location of GeesthachtLocation

Historic Weather in Geesthacht — Graph

°F

Geesthacht temperature yesterday

Maximum temperature yesterday: 43 °F (at 11:20 AM)
Minimum temperature yesterday: 36 °F (at 1:20 AM)
Average temperature yesterday: 40 °F

Past Weeks' High & Low Weather Summary

 TemperatureHumidityPressure
High54 °F (Nov 8, 12:20 PM)100% (Nov 9, 1:20 AM)30.36 "Hg (Nov 9, 1:20 AM)
Low28 °F (Nov 21, 2:20 AM)72% (Nov 8, 2:20 PM)29.56 "Hg (Nov 16, 12:20 PM)
Average45 °F92%29.93 "Hg
* Reported Nov 8 11:20 AM — Nov 23 11:20 AM, Geesthacht, Weather by CustomWeather, © 2014

Note: Actual official high and low records may vary slightly from our data, if they occured in-between our weather recording intervals... More about our weather records

Advertising

Geesthacht weather history for previous 24 hours

 ConditionsComfort  
Time TempWeatherWind HumidityBarometerVisibility
11:20 AM
Nov 23
43 °FPartly sunny.10 mph87%30.12 "Hg4 mi
10:50 AM43 °FBroken clouds.9 mph87%30.15 "Hg4 mi
10:20 AM43 °FBroken clouds.8 mph87%30.15 "Hg4 mi
9:50 AM41 °FBroken clouds.8 mph93%30.15 "Hg4 mi
9:20 AM41 °FBroken clouds.8 mph93%30.12 "Hg4 mi
8:50 AM41 °FBroken clouds.5 mph93%30.15 "Hg4 mi
8:20 AM41 °FBroken clouds.8 mph93%30.15 "Hg5 mi
7:50 AM41 °FLight rain. Passing clouds.13 mph93%30.12 "Hg6 mi
7:20 AM41 °FPassing clouds.7 mph87%30.12 "HgN/A
6:50 AM41 °FPassing clouds.6 mph87%30.12 "HgN/A
6:20 AM41 °FClear.8 mph87%30.12 "Hg10 mi
5:50 AM41 °FClear.8 mph87%30.12 "Hg10 mi
5:20 AM41 °FClear.8 mph87%30.12 "Hg10 mi
4:50 AM41 °FClear.8 mph87%30.12 "Hg10 mi
4:20 AM41 °FClear.9 mph87%30.12 "Hg10 mi
3:50 AM41 °FClear.9 mph87%30.12 "Hg10 mi
3:20 AM41 °FClear.9 mph87%30.12 "Hg10 mi
2:50 AM41 °FClear.9 mph87%30.12 "Hg10 mi
2:20 AM41 °FClear.9 mph87%30.15 "Hg10 mi
1:50 AM41 °FClear.9 mph87%30.12 "Hg10 mi
1:20 AM41 °FClear.10 mph87%30.12 "Hg10 mi
12:50 AM41 °FClear.12 mph87%30.12 "Hg10 mi
12:20 AM41 °FClear.12 mph87%30.15 "Hg10 mi
11:50 PM
Nov 22
41 °FClear.13 mph87%30.12 "Hg10 mi
11:20 PM43 °FPassing clouds.10 mph81%30.15 "HgN/A
10:50 PM43 °FClear.10 mph81%30.12 "Hg10 mi
10:20 PM41 °FClear.10 mph93%30.15 "Hg10 mi
9:50 PM41 °FClear.13 mph93%30.15 "Hg10 mi
9:20 PM41 °FClear.13 mph93%30.12 "Hg10 mi
8:50 PM41 °FPassing clouds.12 mph93%30.15 "HgN/A
8:20 PM41 °FClear.12 mph93%30.15 "Hg10 mi
7:50 PM43 °FClear.12 mph87%30.12 "Hg10 mi
7:20 PM43 °FClear.10 mph87%30.15 "Hg10 mi
6:50 PM43 °FClear.13 mph87%30.15 "Hg10 mi
6:20 PM41 °FClear.12 mph93%30.15 "Hg10 mi
5:50 PM43 °FLight rain. Clear.12 mph87%30.15 "HgN/A
5:20 PM43 °FLight rain. Clear.10 mph93%30.15 "Hg6 mi
4:50 PM43 °FLight rain. Clear.7 mph87%30.15 "Hg6 mi
4:20 PM43 °FLight rain. Clear.8 mph87%30.15 "Hg6 mi
3:50 PM43 °FLight rain. Clear.10 mph87%30.12 "Hg6 mi
3:20 PM43 °FLight rain. Partly sunny.10 mph87%30.15 "Hg5 mi
2:50 PM43 °FLight rain. Broken clouds.13 mph87%30.15 "Hg5 mi
2:20 PM43 °FLight rain. Broken clouds.12 mph87%30.15 "Hg5 mi
1:50 PM43 °FLight rain. Broken clouds.8 mph81%30.15 "Hg5 mi
1:20 PM43 °FLight rain. Partly sunny.14 mph81%30.15 "HgN/A
12:50 PM43 °FPartly sunny.12 mph81%30.18 "HgN/A
12:20 PM43 °FPartly sunny.15 mph81%30.18 "HgN/A
Weather by CustomWeather, © 2014

See weather overviewHow to use our weather pages